Weather History for KOSC - January, 2013

Change the Weather History Date:

Tuesday, January 1, 2013

  Actual Average Record
Temperature  
Mean Temperature 22 °F -  
Max Temperature 26 °F 29 °F 50 °F (2011)
Min Temperature 18 °F 15 °F -7 °F (2014)
Degree Days  
Heating Degree Days 43    
Moisture  
Dew Point 10 °F    
Average Humidity 63    
Maximum Humidity 73    
Minimum Humidity 48    
Precipitation  
Precipitation 0.00 in - - ()
Sea Level Pressure  
Sea Level Pressure 30.03 in    
Wind  
Wind Speed 8 mph (WNW)    
Max Wind Speed 15 mph    
Max Gust Speed 21 mph    
Visibility 10 miles    
Events Snow    
Averages and records for this station are not official NWS values.
T = Trace of Precipitation, MM = Missing Value Source: NWS Daily Summary

Daily Weather History Graph

Daily Weather History Graph

Search for Another Location

Airport or City:

Trip Planner

Search our weather history database for the weather conditions in past years. The results will help you decide how hot, cold, wet, or windy it might be!

Date:

Astronomy

Jan. 01, 2013 Rise Set
Actual Time 8:09 AM EST 5:04 PM EST
Civil Twilight 7:36 AM EST 5:38 PM EST
Nautical Twilight 7:00 AM EST 6:14 PM EST
Astronomical Twilight 6:24 AM EST 6:50 PM EST
Moon 9:46 PM EST (1/1) 10:11 AM EST (1/1)
Length of Visible Light 10h 01m
Length of Day
8h 55m
Waning Gibbous, 83% of the Moon is Illuminated
Jan 1
Waning Gibbous
Jan 4
Last Quarter
Jan 11
New
Jan 18
First Quarter
Jan 26
Full

Hourly Weather History & Observations

Time (EST) Temp. Windchill Dew Point Humidity Pressure Visibility Wind Dir Wind Speed Gust Speed Precip Events Conditions
12:13 AM 19.8 °F 10.8 °F 12.4 °F 73% 30.01 in 10.0 mi NNW 6.9 mph - N/A   Overcast
12:34 AM 19.8 °F 9.1 °F 10.9 °F 69% 30.00 in 10.0 mi NNW 9.2 mph 16.1 mph N/A   Overcast
12:54 AM 19.6 °F 8.9 °F 11.5 °F 71% 30.01 in 10.0 mi NNW 9.2 mph - N/A   Overcast
1:13 AM 19.4 °F 9.5 °F 11.3 °F 71% 30.01 in 7.0 mi NNW 8.1 mph - N/A Snow Light Snow
1:34 AM 19.4 °F 6.0 °F 8.6 °F 63% 30.02 in 10.0 mi NW 13.8 mph 18.4 mph N/A   Overcast
1:54 AM 19.4 °F 7.9 °F 9.5 °F 65% 30.02 in 10.0 mi WNW 10.4 mph - N/A   Overcast
2:13 AM 19.4 °F 9.5 °F 9.3 °F 65% 30.02 in 10.0 mi WNW 8.1 mph - N/A   Overcast
2:34 AM 19.4 °F 9.5 °F 7.7 °F 60% 30.03 in 10.0 mi NW 8.1 mph - N/A   Overcast
2:53 AM 19.2 °F 7.7 °F 7.9 °F 61% 30.03 in 10.0 mi West 10.4 mph - N/A   Overcast
3:14 AM 18.7 °F 7.8 °F 8.6 °F 65% 30.03 in 10.0 mi West 9.2 mph - N/A   Overcast
3:34 AM 18.1 °F 6.3 °F 8.6 °F 66% 30.03 in 10.0 mi West 10.4 mph - N/A   Overcast
3:53 AM 18.5 °F 7.5 °F 8.6 °F 65% 30.03 in 10.0 mi WNW 9.2 mph - N/A   Overcast
4:14 AM 18.7 °F 9.5 °F 8.4 °F 64% 30.03 in 10.0 mi WNW 6.9 mph - N/A   Overcast
4:34 AM 18.5 °F 9.3 °F 8.1 °F 64% 30.03 in 10.0 mi WNW 6.9 mph - N/A   Overcast
4:53 AM 18.5 °F 10.4 °F 8.6 °F 65% 30.03 in 10.0 mi WNW 5.8 mph - N/A   Overcast
5:14 AM 18.9 °F 9.8 °F 8.6 °F 64% 30.04 in 10.0 mi NW 6.9 mph - N/A   Overcast
5:34 AM 19.0 °F 7.5 °F 9.5 °F 66% 30.04 in 10.0 mi WNW 10.4 mph - N/A   Overcast
5:53 AM 19.2 °F 11.3 °F 8.6 °F 63% 30.04 in 10.0 mi NW 5.8 mph - N/A   Overcast
6:14 AM 19.0 °F 8.2 °F 8.8 °F 64% 30.05 in 10.0 mi NW 9.2 mph - N/A   Overcast
6:34 AM 19.0 °F 11.1 °F 9.1 °F 65% 30.06 in 10.0 mi NW 5.8 mph - N/A   Overcast
6:53 AM 19.2 °F 11.3 °F 8.4 °F 63% 30.06 in 10.0 mi NW 5.8 mph - N/A   Overcast
7:14 AM 19.0 °F 13.9 °F 9.5 °F 66% 30.06 in 10.0 mi NW 3.5 mph - N/A   Overcast
7:34 AM 19.0 °F 13.9 °F 10.0 °F 68% 30.07 in 10.0 mi NNW 3.5 mph - N/A   Overcast
7:53 AM 18.9 °F 9.8 °F 10.9 °F 71% 30.07 in 10.0 mi NNW 6.9 mph - N/A   Overcast
8:14 AM 18.5 °F 11.7 °F 10.8 °F 72% 30.08 in 10.0 mi NNW 4.6 mph - N/A   Overcast
8:34 AM 18.5 °F - 11.3 °F 73% 30.08 in 10.0 mi Calm Calm - N/A   Overcast
8:53 AM 18.5 °F 13.3 °F 11.1 °F 73% 30.09 in 10.0 mi NNW 3.5 mph - N/A   Overcast
9:14 AM 18.9 °F - 11.1 °F 72% 30.09 in 10.0 mi Calm Calm - N/A   Overcast
9:34 AM 19.0 °F 11.1 °F 11.7 °F 73% 30.10 in 10.0 mi NNW 5.8 mph - N/A   Overcast
9:53 AM 19.4 °F 14.3 °F 11.8 °F 72% 30.10 in 10.0 mi NNW 3.5 mph - N/A   Overcast
10:14 AM 19.2 °F 12.5 °F 10.8 °F 70% 30.10 in 10.0 mi NW 4.6 mph - N/A   Mostly Cloudy
10:34 AM 20.8 °F 13.2 °F 10.6 °F 65% 30.11 in 10.0 mi NNW 5.8 mph - N/A   Scattered Clouds
10:53 AM 21.0 °F 12.4 °F 9.3 °F 61% 30.10 in 10.0 mi NNW 6.9 mph - N/A   Mostly Cloudy
11:14 AM 20.8 °F 11.2 °F 8.8 °F 60% 30.11 in 10.0 mi NNW 8.1 mph - N/A   Overcast
11:34 AM 20.5 °F 11.7 °F 7.5 °F 57% 30.10 in 10.0 mi NW 6.9 mph - N/A   Mostly Cloudy
11:53 AM 22.6 °F 18.0 °F 7.9 °F 53% 30.09 in 10.0 mi NW 3.5 mph - N/A   Scattered Clouds
12:14 PM 23.5 °F 14.5 °F 8.4 °F 53% 30.07 in 10.0 mi WNW 8.1 mph - N/A   Mostly Cloudy
12:34 PM 22.8 °F 14.5 °F 7.7 °F 52% 30.05 in 10.0 mi NW 6.9 mph - N/A   Scattered Clouds
12:53 PM 24.8 °F 15.3 °F 8.1 °F 49% 30.04 in 10.0 mi WNW 9.2 mph - N/A   Mostly Cloudy
1:14 PM 24.3 °F 17.3 °F 7.2 °F 48% 30.02 in 10.0 mi West 5.8 mph - N/A   Scattered Clouds
1:34 PM 24.6 °F 15.8 °F 8.4 °F 50% 30.02 in 10.0 mi West 8.1 mph - N/A   Mostly Cloudy
1:53 PM 23.7 °F 14.0 °F 8.8 °F 53% 30.01 in 10.0 mi West 9.2 mph - N/A   Scattered Clouds
2:14 PM 26.1 °F 15.0 °F 10.2 °F 51% 30.01 in 10.0 mi West 12.7 mph - N/A   Mostly Cloudy
2:34 PM 24.6 °F 15.8 °F 9.0 °F 51% 30.01 in 10.0 mi WSW 8.1 mph - N/A   Scattered Clouds
2:53 PM 25.2 °F 15.1 °F 9.7 °F 52% 30.01 in 10.0 mi WSW 10.4 mph - N/A   Mostly Cloudy
3:14 PM 23.5 °F 13.0 °F 9.9 °F 56% 30.01 in 10.0 mi WSW 10.4 mph - N/A   Mostly Cloudy
3:33 PM 23.0 °F 13.1 °F 9.5 °F 56% 30.01 in 10.0 mi West 9.2 mph - N/A   Mostly Cloudy
3:54 PM 23.5 °F 13.0 °F 10.4 °F 57% 30.01 in 10.0 mi SW 10.4 mph - N/A   Overcast
4:14 PM 23.5 °F 11.3 °F 11.3 °F 60% 30.01 in 10.0 mi West 13.8 mph - N/A   Overcast
4:33 PM 23.0 °F 11.7 °F 10.2 °F 58% 30.02 in 10.0 mi West 11.5 mph - N/A   Overcast
4:54 PM 23.0 °F 11.7 °F 10.8 °F 60% 30.02 in 10.0 mi West 11.5 mph - N/A   Overcast
5:14 PM 22.6 °F 10.7 °F 10.2 °F 59% 30.02 in 10.0 mi West 12.7 mph - N/A   Overcast
5:34 PM 22.6 °F 11.9 °F 11.3 °F 62% 30.02 in 10.0 mi West 10.4 mph - N/A   Overcast
5:54 PM 22.5 °F 11.7 °F 11.5 °F 63% 30.02 in 10.0 mi West 10.4 mph 16.1 mph N/A   Overcast
6:13 PM 22.1 °F 12.0 °F 11.7 °F 64% 30.02 in 10.0 mi West 9.2 mph - N/A   Overcast
6:34 PM 22.1 °F 10.6 °F 10.6 °F 61% 30.01 in 10.0 mi West 11.5 mph - N/A   Overcast
6:54 PM 22.1 °F 12.0 °F 10.4 °F 61% 30.01 in 10.0 mi West 9.2 mph - N/A   Overcast
7:13 PM 21.4 °F 11.1 °F 9.7 °F 61% 30.01 in 10.0 mi West 9.2 mph - N/A   Overcast
7:34 PM 20.3 °F 10.6 °F 10.0 °F 65% 30.01 in 10.0 mi WSW 8.1 mph - N/A   Overcast
7:54 PM 20.1 °F 11.3 °F 10.4 °F 66% 30.01 in 10.0 mi WSW 6.9 mph - N/A   Overcast
8:13 PM 20.3 °F 10.6 °F 10.6 °F 66% 30.00 in 10.0 mi WSW 8.1 mph - N/A   Overcast
8:34 PM 20.7 °F 13.0 °F 10.8 °F 66% 30.00 in 10.0 mi West 5.8 mph - N/A   Overcast
8:54 PM 21.0 °F 11.4 °F 11.3 °F 66% 29.99 in 10.0 mi WSW 8.1 mph - N/A   Overcast
9:13 PM 20.8 °F 11.2 °F 11.3 °F 67% 29.99 in 10.0 mi West 8.1 mph - N/A   Overcast
9:34 PM 20.3 °F 10.6 °F 11.1 °F 68% 29.99 in 10.0 mi West 8.1 mph - N/A   Overcast
9:54 PM 20.7 °F 9.5 °F 11.3 °F 67% 30.00 in 10.0 mi West 10.4 mph - N/A   Overcast
10:13 PM 21.2 °F 10.9 °F 11.3 °F 66% 30.00 in 10.0 mi West 9.2 mph - N/A   Overcast
10:34 PM 20.8 °F 11.2 °F 11.3 °F 67% 30.00 in 10.0 mi West 8.1 mph - N/A   Overcast
10:54 PM 20.7 °F 8.8 °F 11.1 °F 67% 30.00 in 10.0 mi West 11.5 mph - N/A   Overcast
11:13 PM 19.9 °F 7.9 °F 10.4 °F 67% 30.00 in 10.0 mi West 11.5 mph - N/A   Overcast
11:34 PM 19.8 °F 9.9 °F 10.6 °F 68% 30.01 in 10.0 mi West 8.1 mph - N/A   Overcast
11:54 PM 19.2 °F 5.3 °F 9.5 °F 66% 30.01 in 10.0 mi NW 15.0 mph 20.7 mph N/A   Overcast